Change the Weather History Date:

Monday, April 21, 2014

  Actual Average (KLUK) Record (KLUK)
Temperature  
Mean Temperature 62 °F -  
Max Temperature 77 °F 66 °F 88 °F (1985)
Min Temperature 48 °F 47 °F 30 °F (1962)
Degree Days  
Heating Degree Days 2    
Growing Degree Days 12 (Base 50)    
Moisture  
Dew Point 42 °F    
Average Humidity 47    
Maximum Humidity 87    
Minimum Humidity 26    
Precipitation  
Precipitation 0.00 in - - ()
Sea Level Pressure  
Sea Level Pressure 30.00 in    
Wind  
Wind Speed 3 mph (WSW)    
Max Wind Speed 15 mph    
Max Gust Speed 20 mph    
Visibility 10 miles    
Events Rain    
Averages and records for this station are not official NWS values.
T = Trace of Precipitation, MM = Missing Value Source: NWS Daily Summary

Daily Weather History Graph

Daily Weather History Graph

Search for Another Location

Airport or City:

Trip Planner

Search our weather history database for the weather conditions in past years. The results will help you decide how hot, cold, wet, or windy it might be!

Date:

Astronomy

Apr. 21, 2014 Rise Set
Actual Time 6:51 AM EDT 8:20 PM EDT
Civil Twilight 6:23 AM EDT 8:48 PM EDT
Nautical Twilight 5:49 AM EDT 9:21 PM EDT
Astronomical Twilight 5:14 AM EDT 9:57 PM EDT
Moon 1:48 AM EDT (4/21) 12:17 PM EDT (4/21)
Length of Visible Light 14h 24m
Length of Day
13h 28m
Waning Gibbous, 58% of the Moon is Illuminated
Apr 21
Waning Gibbous
Apr 22
Last Quarter
Apr 29
New
May 6
First Quarter
May 14
Full

Hourly Weather History & Observations

Time (EDT) Temp. Dew Point Humidity Pressure Visibility Wind Dir Wind Speed Gust Speed Precip Events Conditions
12:17 AM 59.0 °F 42.8 °F 55% 30.11 in 10.0 mi Calm Calm - N/A   Clear
12:37 AM 59.0 °F 41.0 °F 51% 30.11 in 10.0 mi Calm Calm - N/A   Clear
12:56 AM 55.4 °F 37.4 °F 51% 30.10 in 10.0 mi Calm Calm - N/A   Clear
1:17 AM 55.4 °F 39.2 °F 54% 30.10 in 10.0 mi SSE 3.5 mph - N/A   Clear
1:37 AM 55.4 °F 41.0 °F 58% 30.10 in 10.0 mi Calm Calm - N/A   Clear
1:56 AM 55.4 °F 42.8 °F 63% 30.10 in 10.0 mi Calm Calm - N/A   Clear
2:17 AM 53.6 °F 41.0 °F 62% 30.09 in 10.0 mi Calm Calm - N/A   Clear
2:37 AM 53.6 °F 41.0 °F 62% 30.09 in 10.0 mi Calm Calm - N/A   Clear
2:56 AM 53.6 °F 42.8 °F 67% 30.08 in 10.0 mi Calm Calm - N/A   Clear
3:17 AM 51.8 °F 42.8 °F 71% 30.08 in 10.0 mi Calm Calm - N/A   Clear
3:37 AM 51.8 °F 42.8 °F 71% 30.08 in 10.0 mi Calm Calm - N/A   Clear
3:56 AM 51.8 °F 42.8 °F 71% 30.08 in 10.0 mi Calm Calm - N/A   Clear
4:17 AM 51.8 °F 44.6 °F 76% 30.08 in 10.0 mi Calm Calm - N/A   Clear
4:37 AM 50.0 °F 41.0 °F 71% 30.08 in 10.0 mi Calm Calm - N/A   Clear
4:56 AM 50.0 °F 42.8 °F 76% 30.08 in 10.0 mi Calm Calm - N/A   Clear
5:17 AM 50.0 °F 42.8 °F 76% 30.08 in 10.0 mi Calm Calm - N/A   Clear
5:37 AM 50.0 °F 42.8 °F 76% 30.08 in 10.0 mi Calm Calm - N/A   Clear
5:56 AM 50.0 °F 42.8 °F 76% 30.07 in 10.0 mi Calm Calm - N/A   Clear
6:17 AM 48.2 °F 42.8 °F 82% 30.07 in 10.0 mi Calm Calm - N/A   Clear
6:37 AM 50.0 °F 42.8 °F 76% 30.08 in 10.0 mi Calm Calm - N/A   Clear
6:56 AM 50.0 °F 42.8 °F 76% 30.08 in 10.0 mi Calm Calm - N/A   Clear
7:17 AM 48.2 °F 42.8 °F 82% 30.08 in 10.0 mi Calm Calm - N/A   Clear
7:34 AM 50.0 °F 42.8 °F 76% 30.08 in 10.0 mi Calm Calm - N/A   Clear
7:53 AM 50.0 °F 44.6 °F 82% 30.08 in 10.0 mi Calm Calm - N/A   Clear
8:13 AM 50.0 °F 46.4 °F 87% 30.08 in 10.0 mi Calm Calm - N/A   Clear
8:34 AM 53.6 °F 46.4 °F 77% 30.07 in 10.0 mi Calm Calm - N/A   Clear
8:53 AM 57.2 °F 48.2 °F 72% 30.07 in 10.0 mi Calm Calm - N/A   Clear
9:13 AM 60.8 °F 48.2 °F 63% 30.07 in 10.0 mi Calm Calm - N/A   Clear
9:34 AM 68.0 °F 42.8 °F 40% 30.06 in 10.0 mi WSW 9.2 mph - N/A   Clear
9:53 AM 68.0 °F 42.8 °F 40% 30.06 in 10.0 mi WSW 6.9 mph - N/A   Clear
10:13 AM 68.0 °F 42.8 °F 40% 30.06 in 10.0 mi SW 6.9 mph - N/A   Clear
10:33 AM 69.8 °F 42.8 °F 38% 30.05 in 10.0 mi SW 6.9 mph - N/A   Clear
10:53 AM 69.8 °F 42.8 °F 38% 30.05 in 10.0 mi WSW 6.9 mph - N/A   Clear
11:14 AM 71.6 °F 42.8 °F 35% 30.05 in 10.0 mi WSW 8.1 mph - N/A   Clear
11:33 AM 73.4 °F 41.0 °F 31% 30.04 in 10.0 mi West 8.1 mph - N/A   Clear
11:53 AM 73.4 °F 41.0 °F 31% 30.04 in 10.0 mi WSW 10.4 mph - N/A   Clear
12:14 PM 75.2 °F 41.0 °F 29% 30.03 in 10.0 mi WSW 9.2 mph - N/A   Clear
12:33 PM 75.2 °F 41.0 °F 29% 30.03 in 10.0 mi WSW 5.8 mph 9.2 mph N/A   Clear
12:53 PM 77.0 °F 41.0 °F 28% 30.02 in 10.0 mi WSW 10.4 mph - N/A   Clear
1:14 PM 75.2 °F 39.2 °F 27% 30.01 in 10.0 mi WSW 9.2 mph - N/A   Clear
1:33 PM 77.0 °F 39.2 °F 26% 30.00 in 10.0 mi WSW 11.5 mph - N/A   Clear
1:53 PM 75.2 °F 39.2 °F 27% 30.00 in 10.0 mi West 11.5 mph - N/A   Clear
2:14 PM 77.0 °F 39.2 °F 26% 29.99 in 10.0 mi WSW 13.8 mph 19.6 mph N/A   Clear
2:33 PM 77.0 °F 41.0 °F 28% 29.98 in 10.0 mi WSW 9.2 mph - N/A   Clear
2:53 PM 77.0 °F 39.2 °F 26% 29.98 in 10.0 mi West 11.5 mph 16.1 mph N/A   Clear
3:14 PM 77.0 °F 41.0 °F 28% 29.97 in 10.0 mi West 10.4 mph 17.3 mph N/A   Clear
3:33 PM 77.0 °F 41.0 °F 28% 29.96 in 10.0 mi WSW 12.7 mph - N/A   Clear
3:53 PM 77.0 °F 39.2 °F 26% 29.95 in 10.0 mi SW 10.4 mph 17.3 mph N/A   Clear
4:14 PM 75.2 °F 41.0 °F 29% 29.94 in 10.0 mi WSW 8.1 mph - N/A   Clear
4:33 PM 77.0 °F 39.2 °F 26% 29.94 in 10.0 mi WSW 15.0 mph 19.6 mph N/A   Clear
4:53 PM 77.0 °F 39.2 °F 26% 29.93 in 10.0 mi SW 10.4 mph - N/A   Clear
5:14 PM 77.0 °F 39.2 °F 26% 29.92 in 10.0 mi SSW 6.9 mph 16.1 mph N/A   Clear
5:33 PM 77.0 °F 41.0 °F 28% 29.92 in 10.0 mi SW 10.4 mph - N/A   Clear
5:53 PM 75.2 °F 41.0 °F 29% 29.92 in 10.0 mi SW 5.8 mph 16.1 mph N/A   Clear
6:14 PM 75.2 °F 41.0 °F 29% 29.92 in 10.0 mi WSW 11.5 mph - N/A   Clear
6:33 PM 75.2 °F 41.0 °F 29% 29.92 in 10.0 mi SW 12.7 mph 17.3 mph N/A   Clear
6:53 PM 73.4 °F 41.0 °F 31% 29.91 in 10.0 mi WSW 6.9 mph - N/A   Clear
7:14 PM 73.4 °F 41.0 °F 31% 29.90 in 10.0 mi SW 3.5 mph - N/A   Clear
7:33 PM 73.4 °F 41.0 °F 31% 29.90 in 10.0 mi SW 3.5 mph - N/A   Clear
7:53 PM 73.4 °F 41.0 °F 31% 29.89 in 10.0 mi Calm Calm - N/A   Clear
8:13 PM 71.6 °F 41.0 °F 33% 29.89 in 10.0 mi Calm Calm - N/A   Clear
8:33 PM 71.6 °F 41.0 °F 33% 29.89 in 10.0 mi SSW 3.5 mph - N/A   Clear
8:53 PM 71.6 °F 42.8 °F 35% 29.89 in 10.0 mi SSW 3.5 mph - N/A   Scattered Clouds
9:13 PM 71.6 °F 42.8 °F 35% 29.88 in 10.0 mi SSW 3.5 mph - N/A   Scattered Clouds
9:33 PM 71.6 °F 42.8 °F 35% 29.88 in 10.0 mi SSW 3.5 mph - N/A   Scattered Clouds
9:53 PM 71.6 °F 42.8 °F 35% 29.88 in 10.0 mi SW 4.6 mph - N/A   Scattered Clouds
10:13 PM 71.6 °F 44.6 °F 38% 29.88 in 10.0 mi SW 5.8 mph - N/A   Scattered Clouds
10:33 PM 69.8 °F 44.6 °F 40% 29.88 in 10.0 mi SW 6.9 mph - N/A   Overcast
10:53 PM 69.8 °F 46.4 °F 43% 29.87 in 10.0 mi WSW 5.8 mph - N/A   Mostly Cloudy
11:13 PM 69.8 °F 46.4 °F 43% 29.87 in 10.0 mi WSW 4.6 mph - N/A Rain Light Rain
11:33 PM 68.0 °F 50.0 °F 52% 29.87 in 10.0 mi West 6.9 mph - N/A Rain Light Rain
11:53 PM 68.0 °F 50.0 °F 52% 29.87 in 10.0 mi NNW 8.1 mph - N/A   Overcast